Погода в Вышкове

Украина / Ивано-Франковская область     48°43′36″N   23°39′25″E
В апреле 2022 года жителям России запретили посещать сайт meteo.paraplan.net по решению Генеральной прокуратуры. Аудитория сайта уменьшилась в 10 раз. Владельцы сайта не видят смысла в поддержке погодного сервера в таких условиях. Сайт будет закрыт в октябре.
темп.,
°C
ветер,
м/с
пор.,
м/с
влажн.,
%
обл.,
%
осадки,
мм/ч
давл.,
гПа
погр.,
м
30 сентября, пт
пт3000:00+9ю2398100 0.3 100894
03:00+9ююз239849 0.3 101099
06:00+8ююз2397100 0.1 101051
09:00+10ююв2393100 0.1 101175
12:00+13ю2784100 0.1 1011525
15:00+11ююз4129050 2.3 10121002
18:00+12ююз51288100 0.4 10121095
21:00+12юз4139184 0.6 10141156
1 октября, сб
сб100:00+11юз6148995 0.0 1014984
03:00+8ююз349822 0.1 101799
06:00+10ююз2696100 0.0 1016245
09:00+10ююз2899100 3.1 1017579
12:00+11ююз299790 5.0 1016682
15:00+15юз5127676 5.2 10141192
18:00+13ююз31189100 0.2 10131008
21:00+11юз2499100 6.4 1012188
2 октября, вс
вс200:00+10юз2398100 9.8 101194
03:00+9зюз2299100 11.6 101151
06:00+9сз2497100 5.0 1011476
09:00+7зсз279396 6.1 1013827
12:00+7з3989100 0.3 10151042
15:00+7з289389 1.1 1015944
18:00+7зсз398940 0.8 10151116
21:00+6зсз3109365 1.2 1017845
3 октября, пн
пн300:00+6з299299 0.4 1017900
03:00+6з3992100 0.8 1017834
06:00+5з2696100 2.2 1017798
09:00+5з2794100 4.3 10171101
12:00+6з379091 0.8 1018940
15:00+7з379099 1.6 1018965
18:00+6з259192 0.3 1018345
21:00+6зюз2593100 0.3 1019274
4 октября, вт
вт400:00+6юз3891100 0.1 1019513
03:00+5зюз3990100 0.1 1018679
06:00+5зюз41191100 0.0 10181009
09:00+6зюз31090100 0.1 1018877
12:00+6зюз3892100 0.4 1018937
15:00+8з368294 1.1 1018899
18:00+7з3789100 0.9 1019637
21:00+3з119694 1.6 102111